Location: Vihti�l�
(61.3833°N, 23.0667°E)
Time: 04:41:24
(UTC+00:00)

NOSS 3-1 (C) - Pass Details

Date: 29 November 2020
Orbit: 738 x 1470 km, 63.4° (Epoch: 18 January)

Event Time Altitude Azimuth Distance (km) Brightness Sun altitude
Exits shadow 04:07:32 32° 291° (WNW) 1,742 4.3 -19.8°
Maximum altitude 04:11:03 88° 22° (NNE) 1,151 3.8 -19.4°
Drops below altitude 10° 04:19:05 10° 111° (ESE) 3,315 7.5 -18.5°
Sets 04:22:08 0° 112° (ESE) 4,374 8.5 -18.1°
